Location: Taupo
(38.6830°S, 176.0830°E)
Time: 10:26:34
(UTC+12:00)

Aureole 3 Rocket - Pass Details

Date: 24 January 2019
Orbit: 398 x 1743 km, 82.5° (Epoch: 19 April)

Event Time Altitude Azimuth Distance (km) Brightness Sun altitude
Rises 21:41:52 0° 189° (S) 2,463 6.9 -11.6°
Reaches altitude 10° 21:43:44 10° 189° (S) 1,662 6.0 -11.9°
Maximum altitude 21:47:16 85° 276° (W) 567 2.9 -12.5°
Drops below altitude 10° 21:51:53 10° 4° (N) 2,153 5.4 -13.2°
Enters shadow 21:52:26 - 4° (N) 2,384 5.7 -13.3°
